Regional Weather Roundup
Issued by NWS

Home | Current Version | Previous Version | Graphics & Text | Print | Product List | Glossary Off
Versions: 1 2 3 4 5 6 7 8 9 10 11 12 13 14 15 16 17 18 19 20 21 22 23 24 25 26 27 28 29 30 31 32 33 34 35 36 37 38 39 40 41 42 43 44 45 46 47 48 49 50

000
ASUS43 KDTX 022301
RWRMI
MICHIGAN HOURLY REGIONAL WEATHER ROUNDUP
NATIONAL WEATHER SERVICE DETROIT/PONTIAC MI
700 PM EDT WED SEP 02 2015

NOTE: "FAIR" INDICATES FEW OR NO CLOUDS BELOW 12,000 FEET WITH NO
SIGNIFICANT WEATHER AND/OR OBSTRUCTION TO VISIBILITY.

MIZ047>049-052>055-059>063-066>070-074>076-081>083-030000-
SOUTHEAST LOWER MICHIGAN

CITY           SKY/WX    TMP DP  RH WIND       PRES   REMARKS
ADRIAN         SUNNY     86  68  54 NW8       29.98S
ALMA           MOSUNNY   82  71  68 SW5       29.95S
ANN ARBOR      SUNNY     86  68  54 NW7       29.97R
BAD AXE        PTSUNNY   83  71  66 CALM      29.94S
CARO           PTSUNNY   77  71  81 S3        29.95R
DETROIT CITY   MOSUNNY   89  66  46 N21G31    29.95R HX  91
DETROIT        MOSUNNY   88  67  49 W10       29.95R HX  91
FLINT          PTSUNNY   83  66  56 CALM      29.96S
GROSSE ILE     MOSUNNY   88  70  55 W8        29.94R HX  92
HILLSDALE      SUNNY     80  71  74 CALM      30.00S
HOWELL         SUNNY     85  67  54 W7        29.97S

CITY           SKY/WX    TMP DP  RH WIND       PRES   REMARKS
JACKSON        SUNNY     82  69  64 W6        29.98F
LAMBERTVILLE   MOSUNNY   84  73  69 CALM      29.97R
LANSING        SUNNY     85  70  60 W7        29.98R
LAPEER         FAIR      72  71  96 SW3       29.97R
MASON          SUNNY     84  69  60 NW3       29.98R
MT. CLEMENS    CLOUDY    77  65  64 NW12G20   29.94R
PONTIAC        TSTM      74  68  81 W5        29.97R
PORT HOPE        N/A     74  72  93 CALM      29.92S
PORT HURON     PTSUNNY   77  75  94 CALM      29.93S
TRI CITIES     PTSUNNY   80  70  71 S6        29.94S
MIDLAND        FAIR      84  71  66 W6        29.92R
TROY           PTSUNNY   82  66  58 N10G25    29.99R
SAGINAW HB     CLOUDY    77  70  78 SW7       29.94R
$$
MIZ043>046-050>051-056>058-064>065-071>073-077>080-030000-
SOUTHWEST LOWER MICHIGAN

CITY           SKY/WX    TMP DP  RH WIND       PRES   REMARKS
BATTLE CREEK   MOSUNNY   85  71  63 W6        30.00S HX  90
BENTON HARBOR  SUNNY     86  70  58 S3        29.96F HX  90
BIG RAPIDS     MOSUNNY   83  71  66 W8        29.97R
COLDWATER      SUNNY     85  66  53 W5        29.99S
FREMONT        FAIR      81  72  74 SW7       29.96S
HOLLAND        SUNNY     83  70  64 S3        29.97F
GRAND RAPIDS   PTSUNNY   85  68  56 W10       29.97F
IONIA          FAIR      85  69  60 W7        29.96S
KALAMAZOO      MOSUNNY   85  68  56 NW9       29.99S
LUDINGTON      MOSUNNY   78  71  77 W3        29.96S
MARSHALL       SUNNY     83  71  66 W6        29.98S
MOUNT PLEASANT MOSUNNY   87  71  58 W8        29.94R HX  92
MUSKEGON       PTSUNNY   79  69  71 S5        29.97S
SOUTH HAVEN    SUNNY     82  71  70 CALM      29.97S
$$
MIZ016>042-030000-
NORTHERN LOWER MICHIGAN

CITY           SKY/WX    TMP DP  RH WIND       PRES   REMARKS
ALPENA         CLOUDY    70  67  90 S8        29.98S THUNDER
BEAVER ISLAND  MOSUNNY   73  70  88 CALM      29.98R
BELLAIRE       CLOUDY    79  69  72 E3        29.97R
CADILLAC       MOSUNNY   83  73  71 W5        29.98R
CHARLEVOIX     PTSUNNY   76  72  88 SE6       29.99R
FRANKFORT      MOSUNNY   74  70  87 CALM      29.96R
GAYLORD        PTSUNNY   70  65  84 VRB3      30.01R
GRAYLING       DRIZZLE   75  64  67 NE9G17    30.01R
HARBOR SPRINGS PTSUNNY   76  70  80 E3        29.97R
HOUGHTON LAKE  TSTM      71  61  70 N12G58    29.99R SQUALL  VSB 1/4
MANISTEE       MOSUNNY   81  70  69 W3        29.96R
OSCODA         CLOUDY    72  69  90 CALM      29.95R
PELLSTON       PTSUNNY   76  70  82 SE9       29.98R
ROGERS CITY    CLOUDY    75  69  82 SW8       29.98S
TRAVERSE CITY  PTSUNNY   76  69  79 CALM      29.96R
$$
MIZ007>008-015-030000-
EASTERN UPPER MICHIGAN

CITY           SKY/WX    TMP DP  RH WIND       PRES   REMARKS
KINROSS        CLOUDY    72  63  73 CALM      29.96R
MACKINAC ISLAN CLOUDY    75  69  79 NE5       29.97R
NEWBERRY       MOSUNNY   74  65  72 N5        29.96R
S. S. MARIE    CLOUDY    72  64  76 W6        29.94S
MUNISING         N/A     67  64  90 NE5       29.98R
$$
MIZ004>006-011>014-085-030000-
CENTRAL UPPER MICHIGAN

CITY           SKY/WX    TMP DP  RH WIND       PRES   REMARKS
MANISTIQUE     PTSUNNY   73  71  91 SW3       29.97R
ESCANABA       CLOUDY    72  72 100 CALM      29.96S
MENOMINEE      CLOUDY    66  63  88 E6        29.93F
SAWYER-GWINN   DRIZZLE   70  64  83 SE5       30.00R
$$
MIZ001>003-009>011-084-030000-
WESTERN UPPER MICHIGAN

CITY           SKY/WX    TMP DP  RH WIND       PRES   REMARKS
IRON MOUNTAIN  LGT RAIN  71  68  90 SE8       29.93F
HOUGHTON       CLOUDY    71  64  78 CALM      29.96R
COPPER HARBOR    N/A     69  61  75 E3        29.96R
IRONWOOD       CLOUDY    66  64  94 E5        29.93F
$$

ABBREVIATIONS USED IN REMARKS
   TC - TEMPERATURE IN CELSIUS
  WCI - WIND CHILL INDEX
   HX - HEAT INDEX
  VSB - VISIBILITY



USA.gov is the U.S. government's official web portal to all federal, state and local government web resources and services.